Regional Weather Roundup
Issued by NWS

Home | Current Version | Previous Version | Graphics & Text | Print | Product List | Glossary On
Versions: 1 2 3 4 5 6 7 8 9 10 11 12 13 14 15 16 17 18 19 20 21 22 23 24 25 26 27
000
ASUS45 KBOU 240807
RWRCO

WEATHER ROUNDUP FOR COLORADO
NATIONAL WEATHER SERVICE DENVER/BOULDER CO
200 AM MDT SAT JUN 24 2017

NOTE: "FAIR" INDICATES FEW OR NO CLOUDS BELOW 12000 FEET WITH NO
SIGNIFICANT WEATHER AND/OR OBSTRUCTIONS TO VISIBILITY.

COZ001>005-013-030-031-240900-
...NORTHWEST COLORADO...

CITY           SKY/WX    TMP DP  RH WIND       PRES   REMARKS
CRAIG          FAIR      46  39  76 SE3       30.25S
HAYDEN         FAIR      48  30  49 CALM      30.26S
MEEKER         FAIR      50  33  52 VRB6      30.27S
RABBIT EARS PA FAIR      46  27  46 W9        30.50F
STEAMBOAT SPGS FAIR      45  35  67 CALM      30.28S
WALDEN         FAIR      39  32  75 SE6       30.37F
$$

COZ006>008-011-240900-
...WEST CENTRAL VALLEYS...

CITY           SKY/WX    TMP DP  RH WIND       PRES   REMARKS
GRAND JUNCTION FAIR      70  22  16 CALM      30.09R
MONTROSE       FAIR      60  30  32 S9        30.18R
EAGLE          FAIR      51  27  39 E5        30.29S
RIFLE          FAIR      58  32  37 E3        30.19R
DELTA          FAIR      64  28  25 CALM      30.13S
NUCLA          FAIR      61  23  23 E8        30.20S
$$

COZ017>023-064>068-240900-
...SOUTHWEST COLORADO...

CITY           SKY/WX    TMP DP  RH WIND       PRES   REMARKS
DURANGO        FAIR      56  21  25 N5        30.21S
CORTEZ         FAIR      53  28  38 E9        30.18R
PAGOSA SPRINGS FAIR      53  22  30 CALM      30.30S
TELLURIDE      FAIR      54  21  28 S5        30.44S
WOLF CREEK PAS FAIR      52  10  19 W10G16    30.67F
$$

COZ009-010-012-014-032>034-037-058>063-240900-
...CENTRAL COLORADO...

CITY           SKY/WX    TMP DP  RH WIND       PRES   REMARKS
ASPEN          FAIR      47  29  49 SW8       30.33S
BUENA VISTA    CLOUDY    51  44  78 E3        30.44F
COPPER MTN     FAIR      46  16  29 W14       30.60F
BERTHOUD PASS  FAIR      37  27  65 NW22      30.61F
COTTONWOOD PAS CLOUDY    46  45  93 CALM      30.52S
GUNNISON       FAIR      48  31  51 CALM      30.34R
KREMMLING      NOT AVBL
LEADVILLE      CLOUDY    42  39  89 S7        30.50R
MONARCH PASS   FAIR      48  19  32 NW3       30.72S
SALIDA         CLOUDY    54  46  75 SE3       30.50S
SUNLIGHT       FAIR      50  18  27 CALM      30.55F
WILKERSON PASS FAIR      39  28  65 SE7       30.60F
$$

COZ069>075-240900-
...SAN LUIS VALLEY/SANGRE DE CRISTO MOUNTAINS...

CITY           SKY/WX    TMP DP  RH WIND       PRES   REMARKS
ALAMOSA        FAIR      50  43  77 SE8       30.32R
DEL NORTE      FAIR      54  23  29 SE3       30.35R
LA VETA PASS   SNOW      39  37  93 N13       30.62F VSB<1/4
SAGUACHE       FAIR      52  36  54 E8        30.36R
$$

COZ035-036-038>040-240900-
...NORTHERN COLORADO FRONT RANGE...

CITY           SKY/WX    TMP DP  RH WIND       PRES   REMARKS
DENVER INTL AP FAIR      50  45  83 SW7       30.32F
DMNS CITY PARK   N/A     51  48  90 SE9       30.32F
AURORA         MOCLDY    48  47  95 S7        30.34F
FRONT RANGE AP FAIR      50  46  87 S7        30.33F
ERIE MUNI ARPT FAIR      50  47  90 CALM      30.30F
BOULDER MUN AP FAIR      54  46  76 S3        30.30F
CENTENNIAL     MOCLDY    50  47  89 CALM      30.34F
BROOMFIELD     FAIR      50  46  87 SW3       30.32F
FORT COLLINS   MOCLDY    55  48  77 SE5       30.31S
LONGMONT       MOCLDY    54  47  80 CALM      30.32S
$$

COZ041-046-047-076>085-087-088-240900-
...PIKES PEAK/PALMER DIVIDE AND SOUTHERN FOOTHILLS...

CITY           SKY/WX    TMP DP  RH WIND       PRES   REMARKS
COLO. SPRINGS  DRIZZLE   54  49  83 S6        30.38F
A. F. ACADEMY  CLOUDY    53  47  81 SE8       30.38S
SCHRIEVER AFB  CLOUDY    54  47  76 SW5       30.38F
CHEYENNE MTN   CLOUDY    50  48  93 S10       30.33F
ELLICOTT       CLOUDY   N/A N/A N/A S5        30.36F
FALCON           N/A     52  46  80 S12       30.41S
FORT CARSON    CLOUDY    56  49  78 SW6       30.36F
LIMON          CLOUDY    52  43  71 N3        30.34F
MONUMENT HILL  CLOUDY    48  45  87 S7        30.41S
CANON CITY     CLOUDY    57  54  88 W3        30.35S
WALSENBURG     CLOUDY    57  50  77 CALM      30.37F
TRINIDAD       CLOUDY    58  45  62 NW7       30.34F
$$

COZ042>045-048>051-090-091-240900-
...NORTHEAST COLORADO...

CITY           SKY/WX    TMP DP  RH WIND       PRES   REMARKS
GREELEY ARPT   FAIR      53  51  93 E6        30.31F
AKRON          FAIR      57  37  47 E5        30.31F
BURLINGTON     FAIR      50  47  89 W7        30.28F
WRAY           FAIR      54  41  62 CALM      30.28S
YUMA           FAIR      52  41  66 CALM      30.29S
STERLING       CLOUDY    55  46  71 N3        30.28S
HOLYOKE        NOT AVBL
FORT MORGAN    CLOUDY    58  40  51 NE8       30.30F
$$

COZ086-089-092>099-240900-
...SOUTHEAST COLORADO...

CITY           SKY/WX    TMP DP  RH WIND       PRES   REMARKS
PUEBLO         CLOUDY    61  52  72 W5        30.32S
LA JUNTA       CLOUDY    65  48  54 E7        30.29F
LAMAR          CLOUDY    64  48  56 S5        30.26F
SPRINGFIELD      N/A     60  49  66 CALM      30.28F
$$




USA.gov is the U.S. government's official web portal to all federal, state and local government web resources and services.